Regional Weather Roundup
Issued by NWS Sioux Falls, SD

Home | Current Version | Previous Version | Graphics & Text | Print | Product List | Glossary Off
Versions: 1 2 3 4 5 6 7 8 9 10 11 12 13 14 15 16 17 18 19 20 21 22 23 24 25 26 27 28 29 30 31 32 33 34 35 36 37 38 39 40 41 42 43 44 45 46 47 48 49 50

000
ASUS43 KFSD 121902
RWRFSD

WEATHER ROUNDUP FOR SE SOUTH DAKOTA/SW MINNESOTA/NW IOWA
NATIONAL WEATHER SERVICE SIOUX FALLS SD
100 PM CST FRI FEB 12 2016

NOTE: "FAIR" INDICATES FEW OR NO CLOUDS BELOW 12,000 FEET WITH NO
SIGNIFICANT WEATHER AND OR OBSTRUCTIONS TO VISIBILITY.


SDZ038>040-050-052>070-122000-
SOUTHEAST SOUTH DAKOTA

CITY           SKY/WX    TMP DP  RH WIND       PRES   REMARKS
BROOKINGS      SUNNY      7  -3  64 N17G24    30.52S WCI -12
CHAMBERLAIN    NOT AVBL
HURON          SUNNY     12   1  61 N16       30.60S WCI  -5
MADISON        FAIR       9   1  72 N21       30.52F WCI -11
MITCHELL       MOSUNNY   15   6  67 N16       30.59F WCI  -1
SIOUX FALLS    MOSUNNY   11   0  61 N20       30.54R WCI  -7
WINNER         CLOUDY    23  12  62 N6        30.52R WCI  16
YANKTON        MOSUNNY   16   5  62 N15       30.57F WCI   1
$$

MNZ071-072-080-081-089-090-097-098-122000-
SOUTHWEST MINNESOTA

CITY           SKY/WX    TMP DP  RH WIND       PRES   REMARKS
FAIRMONT       SUNNY     10   0  61 NW23G32   30.45R WCI -10
JACKSON        SUNNY     10   0  61 NW25G31   30.46S WCI -10
LUVERNE        SUNNY     12   3  67 N17G23    30.54R WCI  -5
MARSHALL       MOSUNNY    6  -2  69 N24       30.54S WCI -16
MONTEVIDEO     PTSUNNY    7   0  72 N17G24    30.58S WCI -12
PIPESTONE      SUNNY      9  -6  52 N10G20    30.50R WCI  -6
REDWOOD FALLS  PTSUNNY    8  -3  61 NW20G30   30.52S WCI -11
TRACY          SUNNY      8   0  69 N24G31    30.52S HAZE    WCI -13
WINDOM         SUNNY      7   0  72 NW26      30.48R HAZE    WCI -16
WORTHINGTON    SUNNY      9  -2  61 NW22      30.49S WCI -11
$$

IAZ001>003-012>014-020>022-031-032-NEZ013-014-SDZ071-122000-
NORTHWEST IOWA

CITY           SKY/WX    TMP DP  RH WIND       PRES   REMARKS
ESTHERVILLE    SUNNY      9   0  67 NW23G32   30.47R WCI -11
SIOUX CITY     MOSUNNY   19   9  65 N16       30.56R WCI   4
SPENCER        SUNNY     11   0  61 N26       30.49S WCI -10
STORM LAKE     SUNNY     12   1  62 N24       30.49R WCI  -8
$$

ABBREVIATIONS USED IN REMARKS
   TC - TEMPERATURE IN CELSIUS
  WCI - WIND CHILL INDEX
   HX - HEAT INDEX
  VSB - VISIBILITY




USA.gov is the U.S. government's official web portal to all federal, state and local government web resources and services.